Stündliche Wetter Holuczkow

Heute, 16 Juni, Mittwoch

Zeit Temperatur Niederschläge Wind Luftdruck Luftfeuchtigkeit
00:00 +12°C° 0 mm 0 m/S 735 mmHg 90%
01:00 +12°C° 0 mm 0 m/S 735 mmHg 90%
02:00 +12°C° 0 mm 0 m/S 735 mmHg 90%
03:00 +11°C° 0 mm 0 m/S 735 mmHg 89%
04:00 +11°C° 0 mm 0 m/S 735 mmHg 89%
05:00 +13°C° 0 mm 0 m/S 735 mmHg 82%
06:00 +18°C° 0 mm 1 m/S 736 mmHg 75%
07:00 +20°C° 0 mm 1 m/S 736 mmHg 68%
08:00 +20°C° 0 mm 2 m/S 736 mmHg 65%
09:00 +21°C° 0 mm 2 m/S 736 mmHg 62%
10:00 +24°C° 0 mm 3 m/S 736 mmHg 59%
11:00 +24°C° 0 mm 3 m/S 736 mmHg 57%
12:00 +25°C° 0 mm 3 m/S 736 mmHg 55%
13:00 +26°C° 0 mm 3 m/S 736 mmHg 53%
14:00 +25°C° 0 mm 3 m/S 736 mmHg 56%
15:00 +25°C° 0 mm 2 m/S 736 mmHg 59%
16:00 +25°C° 0 mm 2 m/S 735 mmHg 62%
17:00 +23°C° 0.1 mm 2 m/S 736 mmHg 69%
18:00 +21°C° 0.1 mm 2 m/S 736 mmHg 76%
19:00 +19°C° 0.1 mm 2 m/S 736 mmHg 83%
20:00 +19°C° 0 mm 1 m/S 736 mmHg 86%
21:00 +18°C° 0 mm 1 m/S 736 mmHg 90%
22:00 +16°C° 0 mm 1 m/S 737 mmHg 93%
23:00 +16°C° 0 mm 1 m/S 737 mmHg 93%

Morgen, 17 Juni, Donnerstag

Zeit Temperatur Niederschläge Wind Luftdruck Luftfeuchtigkeit
00:00 +15°C° 0 mm 1 m/S 737 mmHg 93%
01:00 +14°C° 0 mm 0 m/S 737 mmHg 94%
02:00 +14°C° 0 mm 1 m/S 737 mmHg 94%
03:00 +14°C° 0 mm 1 m/S 737 mmHg 95%
04:00 +14°C° 0 mm 1 m/S 737 mmHg 95%
05:00 +16°C° 0 mm 1 m/S 737 mmHg 89%
06:00 +19°C° 0 mm 1 m/S 737 mmHg 82%
07:00 +20°C° 0 mm 2 m/S 738 mmHg 76%
08:00 +21°C° 0 mm 2 m/S 738 mmHg 68%
09:00 +22°C° 0 mm 3 m/S 738 mmHg 61%
10:00 +25°C° 0 mm 3 m/S 738 mmHg 53%
11:00 +25°C° 0 mm 3 m/S 738 mmHg 51%
12:00 +26°C° 0 mm 3 m/S 738 mmHg 48%
13:00 +27°C° 0 mm 4 m/S 738 mmHg 46%
14:00 +26°C° 0 mm 4 m/S 738 mmHg 49%
15:00 +26°C° 0 mm 4 m/S 738 mmHg 53%
16:00 +26°C° 0 mm 4 m/S 738 mmHg 56%
17:00 +23°C° 0 mm 4 m/S 738 mmHg 65%
18:00 +22°C° 0 mm 3 m/S 738 mmHg 73%
19:00 +20°C° 0 mm 3 m/S 738 mmHg 81%
20:00 +19°C° 0 mm 2 m/S 738 mmHg 86%
21:00 +18°C° 0 mm 2 m/S 738 mmHg 90%
22:00 +18°C° 0 mm 1 m/S 738 mmHg 94%
23:00 +18°C° 0 mm 1 m/S 738 mmHg 94%

übermorgen, 18 Juni, Freitag

Zeit Temperatur Niederschläge Wind Luftdruck Luftfeuchtigkeit
00:00 +16°C° 0 mm 1 m/S 738 mmHg 95%
01:00 +16°C° 0 mm 1 m/S 738 mmHg 95%
02:00 +16°C° 0 mm 1 m/S 737 mmHg 95%
03:00 +16°C° 0 mm 1 m/S 737 mmHg 95%
04:00 +16°C° 0 mm 1 m/S 737 mmHg 95%
05:00 +18°C° 0 mm 2 m/S 737 mmHg 88%
06:00 +20°C° 0 mm 3 m/S 738 mmHg 81%
07:00 +22°C° 0 mm 4 m/S 738 mmHg 74%
08:00 +23°C° 0 mm 4 m/S 738 mmHg 68%
09:00 +26°C° 0 mm 5 m/S 738 mmHg 62%
10:00 +28°C° 0 mm 5 m/S 737 mmHg 56%
11:00 +28°C° 0 mm 5 m/S 737 mmHg 54%
12:00 +29°C° 0 mm 5 m/S 737 mmHg 53%
13:00 +29°C° 0 mm 5 m/S 737 mmHg 51%
14:00 +29°C° 0 mm 5 m/S 737 mmHg 54%
15:00 +28°C° 0 mm 5 m/S 737 mmHg 57%
16:00 +28°C° 0 mm 5 m/S 737 mmHg 60%
17:00 +26°C° 0 mm 5 m/S 737 mmHg 66%
18:00 +25°C° 0 mm 4 m/S 737 mmHg 73%
19:00 +23°C° 0 mm 4 m/S 737 mmHg 79%
20:00 +22°C° 0 mm 4 m/S 737 mmHg 82%
21:00 +21°C° 0 mm 3 m/S 737 mmHg 86%
22:00 +20°C° 0 mm 3 m/S 737 mmHg 89%
23:00 +19°C° 0 mm 2 m/S 737 mmHg 91%

19 Juni, Samstag

Zeit Temperatur Niederschläge Wind Luftdruck Luftfeuchtigkeit
00:00 +18°C° 0 mm 2 m/S 737 mmHg 93%
01:00 +18°C° 0 mm 2 m/S 737 mmHg 95%
02:00 +17°C° 0 mm 2 m/S 737 mmHg 95%
03:00 +17°C° 0 mm 2 m/S 737 mmHg 95%
04:00 +16°C° 0 mm 2 m/S 736 mmHg 95%
05:00 +18°C° 0 mm 2 m/S 737 mmHg 87%
06:00 +20°C° 0 mm 3 m/S 737 mmHg 78%
07:00 +22°C° 0 mm 4 m/S 737 mmHg 70%
08:00 +25°C° 0 mm 4 m/S 737 mmHg 63%
09:00 +26°C° 0 mm 5 m/S 737 mmHg 57%
10:00 +28°C° 0 mm 5 m/S 737 mmHg 50%
11:00 +28°C° 0 mm 5 m/S 737 mmHg 50%
12:00 +28°C° 0 mm 5 m/S 737 mmHg 50%
13:00 +29°C° 0 mm 6 m/S 737 mmHg 51%
14:00 +28°C° 0 mm 5 m/S 737 mmHg 54%
15:00 +27°C° 0 mm 5 m/S 737 mmHg 57%
16:00 +27°C° 0 mm 5 m/S 737 mmHg 60%
17:00 +25°C° 0 mm 4 m/S 737 mmHg 68%
18:00 +23°C° 0 mm 4 m/S 737 mmHg 76%
19:00 +21°C° 0 mm 3 m/S 736 mmHg 84%
20:00 +20°C° 0 mm 3 m/S 736 mmHg 88%
21:00 +19°C° 0 mm 2 m/S 736 mmHg 92%
22:00 +18°C° 0 mm 2 m/S 736 mmHg 96%
23:00 +17°C° 0 mm 2 m/S 736 mmHg 96%

20 Juni, Sonntag

Zeit Temperatur Niederschläge Wind Luftdruck Luftfeuchtigkeit
00:00 +18°C° 0 mm 1 m/S 736 mmHg 97%
01:00 +16°C° 0 mm 1 m/S 736 mmHg 97%
02:00 +16°C° 0 mm 1 m/S 736 mmHg 96%
03:00 +16°C° 0 mm 1 m/S 736 mmHg 96%
04:00 +16°C° 0 mm 1 m/S 736 mmHg 96%
05:00 +19°C° 0 mm 1 m/S 736 mmHg 88%
06:00 +20°C° 0 mm 2 m/S 736 mmHg 80%
07:00 +23°C° 0 mm 2 m/S 736 mmHg 72%
08:00 +24°C° 0 mm 2 m/S 736 mmHg 66%
09:00 +26°C° 0 mm 3 m/S 736 mmHg 60%
10:00 +28°C° 0 mm 3 m/S 736 mmHg 53%
11:00 +29°C° 0 mm 3 m/S 736 mmHg 51%
12:00 +29°C° 0 mm 3 m/S 735 mmHg 48%
13:00 +30°C° 0 mm 4 m/S 735 mmHg 46%
14:00 +29°C° 0 mm 4 m/S 735 mmHg 52%
15:00 +28°C° 0 mm 4 m/S 735 mmHg 57%
16:00 +27°C° 0 mm 5 m/S 735 mmHg 63%
17:00 +26°C° 0 mm 4 m/S 735 mmHg 68%
18:00 +25°C° 0 mm 4 m/S 735 mmHg 74%
19:00 +22°C° 0 mm 3 m/S 734 mmHg 79%
20:00 +21°C° 0 mm 3 m/S 734 mmHg 84%
21:00 +20°C° 0 mm 3 m/S 734 mmHg 89%
22:00 +19°C° 0 mm 2 m/S 734 mmHg 94%
23:00 +18°C° 0 mm 2 m/S 734 mmHg 94%

21 Juni, Montag

Zeit Temperatur Niederschläge Wind Luftdruck Luftfeuchtigkeit
00:00 +18°C° 0 mm 2 m/S 734 mmHg 95%
01:00 +17°C° 0 mm 2 m/S 734 mmHg 95%
02:00 +17°C° 0 mm 2 m/S 734 mmHg 95%
03:00 +18°C° 0 mm 1 m/S 734 mmHg 94%
04:00 +18°C° 0 mm 1 m/S 734 mmHg 94%
05:00 +19°C° 0 mm 2 m/S 734 mmHg 86%
06:00 +21°C° 0 mm 2 m/S 734 mmHg 78%
07:00 +24°C° 0 mm 2 m/S 734 mmHg 71%
08:00 +26°C° 0 mm 2 m/S 734 mmHg 65%
09:00 +27°C° 0 mm 3 m/S 734 mmHg 59%
10:00 +29°C° 0 mm 3 m/S 733 mmHg 53%
11:00 +29°C° 0 mm 4 m/S 733 mmHg 50%
12:00 +29°C° 0 mm 4 m/S 733 mmHg 48%
13:00 +30°C° 0 mm 5 m/S 732 mmHg 46%
14:00 +29°C° 0.2 mm 4 m/S 732 mmHg 52%
15:00 +28°C° 0.2 mm 4 m/S 732 mmHg 57%
16:00 +28°C° 0.2 mm 4 m/S 732 mmHg 63%
17:00 +26°C° 0 mm 4 m/S 732 mmHg 69%
18:00 +25°C° 0 mm 3 m/S 732 mmHg 76%
19:00 +22°C° 0 mm 3 m/S 732 mmHg 83%
20:00 +21°C° 0 mm 3 m/S 731 mmHg 87%
21:00 +20°C° 0 mm 2 m/S 731 mmHg 91%
22:00 +19°C° 0 mm 2 m/S 731 mmHg 95%
23:00 +18°C° 0 mm 2 m/S 731 mmHg 95%
Mehr zeigen

Wir brauchen deine Erlaubnis

Meteoprog und unser Service Anbieter werden persönliche Daten aufbewahren, so wie Cookies, Geräte Bezeichnung oder ähnliche Technologien von deinem Gerät und Prozess, so wie Persönliche Daten Inhalte und Werbungen, genauso wie social Media und den Verkehr zu analysieren.

  • Aufbewahrung und/oder Zugang zu deiner Geräte Informationen.

    Cookies, Geräte Bezeichnung oder andere Informationen, können aufbewahrt oder Zugang zu deinem Gerät erhalten, für den Grund, der oben angegeben wird.

  • Personalisierte Werbung und Inhalte, Messungen, Einblick in das Publikum und Produkt Entwicklung.

    Werbungen und Inhalte können personalisiert werden, basierend auf ein Profil. Mehr Daten können besser personalisierte Werbungen und Inhalte hinzufügen. Werbung und Inhalte können gezeigt und gemessen werden. Einblicke über das Publikum, welche die Werbung gesehen haben und den Inhalt, können abgeleitet werden. So wie Daten können genutzt werden, um es zu verbessern oder die Benutzer Erfahrung zu verbessern das System und die Software.

Wenn du “Ich stimme zu” klickst, erlaubst du uns, die Cookies zu benutzen die Geräte Bezeichnung, den Web oder ähnliche Technologien zu benutzen. Deine Settings, können in deinem Gerät bei deinem Browser geändert werden.

Für den bestimmten Zweck, berechtigten Interessen beruhen darauf, mehr als auf den Inhalt. Du kannst mehr darüber in unseren Privaten und Cookie Politik lesen.